Regional Weather Roundup
Issued by NWS Northern Indiana

Home | Current Version | Previous Version | Graphics & Text | Print | Product List | Glossary On
Versions: 1 2 3 4 5 6 7 8 9 10 11 12 13 14 15 16 17 18 19 20 21 22 23 24 25 26 27 28 29 30 31 32 33 34 35 36 37 38 39 40 41 42 43 44 45 46 47 48 49 50
000
ASUS43 KIWX 261410
RWRIWX

KIWX WEATHER ROUNDUP
NATIONAL WEATHER SERVICE NORTHERN INDIANA
1000 AM EDT MON SEP 26 2016

NOTE: "FAIR" INDICATES FEW OR NO CLOUDS BELOW 12,000 FEET WITH NO
SIGNIFICANT WEATHER AND/OR OBSTRUCTIONS TO VISIBILITY.

* THESE STATIONS ARE NOT UNDER NWS QUALITY CONTROL. THEY ALSO MAY NOT
  REPORT WEATHER SUCH AS PRECIPITATION OR FOG.

INZ001>027-261500-
NORTHERN INDIANA

CITY           SKY/WX    TMP DP  RH WIND       PRES   REMARKS
GARY*          PTSUNNY   61  52  72 W12       30.02S
VALPARAISO     CLOUDY    58  53  84 W12       30.03R
MICHIGAN CITY* CLOUDY    61  50  67 MISG      30.01R
LAPORTE*       CLOUDY    60  59  97 W8        30.01S
KNOX*          CLOUDY    57  39  51 W7        30.02R
SOUTH BEND     CLOUDY    58  54  86 W8        30.00R
ELKHART*       PTSUNNY  N/A N/A N/A SW9       29.98R
GOSHEN         CLOUDY    59  55  87 W10       29.99R
MONTICELLO*    CLOUDY    58  52  80 W6        30.03R
LOGANSPORT*    CLOUDY    57  54  88 W8        30.04R
ROCHESTER*     CLOUDY    61  57  88 W9        30.02R
WARSAW*        CLOUDY    57  52  82 W12       30.00R
ANGOLA*          N/A     59  50  72 W9        29.97R
FORT WAYNE     CLOUDY    59  56  89 W12       30.00S
HUNTINGTON*    CLOUDY    58  57  95 W6        30.00F
PERU/GRISSOM   CLOUDY    59  57  92 W10       30.01R
MARION*        CLOUDY    58  58 100 W14       30.04R

$$
INZ028>050-261500-
CENTRAL INDIANA

CITY           SKY/WX    TMP DP  RH WIND       PRES   REMARKS
LAFAYETTE      CLOUDY    58  57  97 W10       30.06R
MUNCIE*        CLOUDY    60  57  89 W7        30.03S
INDIANAPOLIS   CLOUDY    60  56  86 NW8       30.04F

$$
MIZ043>046-050>051-056>058-064>065-071>073-077>080-261500-
SOUTHWEST LOWER MICHIGAN

CITY           SKY/WX    TMP DP  RH WIND       PRES   REMARKS
BATTLE CREEK   PTSUNNY   60  58  92 W12       29.94R
BENTON HARBOR  PTSUNNY   62  46  55 W17       29.96R
COLDWATER*     CLOUDY    59  58  97 W9        29.95R
HILLSDALE*     CLOUDY    59  55  88 W10       29.94R
HOLLAND        CLOUDY    62  48  60 W15G23    29.92S
GRAND RAPIDS   CLOUDY    60  51  72 W13       29.90S
KALAMAZOO      CLOUDY    60  54  80 W8        29.95R
STURGIS*       CLOUDY    60  56  89 W8        29.97R
THREE RIVERS*  FAIR      60  56  88 W7        29.97R

$$
OHZ001>008-015>018-024>025-261500-
NORTHWEST OHIO

CITY           SKY/WX    TMP DP  RH WIND       PRES   REMARKS
WAUSEON*       DRIZZLE   61  59  94 SW13G20   29.96R
DEFIANCE       CLOUDY    62  57  83 SW7       29.98R
FINDLAY        LGT RAIN  61  57  87 S6        29.95F
TOLEDO EXPRESS CLOUDY    60  60 100 SW8       29.94R
TOLEDO METCALF LGT RAIN  62  61  96 S7        29.94S FOG
LIMA           LGT RAIN  61  61 100 W9        29.99S FOG

$$
AND FOR LAKE MICHIGAN COASTAL AND OPEN LAKE BUOY OBSERVATIONS

STATION/POSITION TEMP    WIND        PRES    VSBY  WAVE
                 AIR SEA DIR/SP/G                  HT/PER
                 (F)     (DEG/KT/KT) (MB)    (MI)  (FT/S)
CALUMET HARBOR    60     230/  6/ 10 1015.6F
MICHIGAN CITY     61     240/ 23/ 26   N/A
BURNS HARBOR      61     260/ 17/ 20 1016.3R
SAINT JOSEPH      63     280/ 18/ 23 1015.9
SOUTH LAKE BUOY   62 71  260/ 21/ 25 1013.0R         5/ 5
4 MI NW BRIDGMAN  64 66  280/ 19/ 25 1014.9          6/ 6
MICHIGAN CITY     63 66  270/ 17/ 23   N/A           5/ 5

$$
&&




USA.gov is the U.S. government's official web portal to all federal, state and local government web resources and services.